Theta_e
334 326 331 328 326 325 318 318 303 309 305 300 299 300 299 308 308 305 305 306 305 312 314 317 319 316 313 311 311 311 315 314 313 305 312 325 339 341 343 342 343 344 343 346 346 348 348 348 348 347 347 347 347 346 346 346 345 345 344 342 342 344 347 347 346 347 347 346 345 344 343 342 341 340 340 339 345 346 342 341 341 340 339 339 339 339 339 339 339 339 339 339 338 339 339 338 339
321 325 330 329 324 319 311 316 306 304 303 300 300 303 301 306 306 304 303 307 308 311 313 318 318 318 315 315 315 312 315 318 322 320 328 334 338 339 343 343 343 342 344 346 346 346 347 349 348 348 348 348 348 346 345 344 344 342 342 343 343 342 346 346 346 347 346 346 345 345 344 343 342 341 340 340 341 340 338 340 342 341 340 339 339 339 338 338 338 339 339 339 339 338 339 338 339
319 325 326 325 323 316 315 313 301 301 299 296 299 302 305 303 303 306 307 310 312 313 316 318 319 315 312 311 310 309 309 322 326 329 326 334 331 335 341 344 343 344 344 346 346 346 346 347 346 348 347 347 347 345 345 345 344 344 343 343 342 342 346 346 346 346 346 346 345 344 343 343 341 341 341 341 340 340 339 339 341 341 340 341 340 340 340 341 341 341 340 340 340 339 339 339 340
325 330 325 325 314 317 309 308 304 302 298 300 298 302 303 304 305 309 311 312 314 315 317 316 313 318 313 309 310 312 316 320 328 328 327 329 333 337 340 342 344 343 345 346 346 346 346 346 345 348 347 347 347 346 345 345 344 344 343 343 343 343 344 346 347 347 347 345 345 344 344 343 342 341 340 340 339 339 339 341 341 341 341 341 342 341 340 339 338 338 338 338 338 338 339 340 340
324 326 324 322 317 308 310 307 304 303 298 300 298 302 304 306 307 309 311 312 314 315 315 315 314 317 318 315 315 312 319 326 329 331 329 335 339 339 341 343 341 342 344 345 345 345 346 345 346 347 347 347 347 346 345 345 345 344 343 343 343 343 344 346 346 346 346 345 345 345 343 342 342 341 340 339 338 340 345 345 344 343 342 342 340 340 340 340 339 339 339 339 339 339 339 339 340
321 323 327 322 311 315 309 302 300 299 302 303 300 302 305 307 307 310 310 310 311 315 315 315 313 314 312 314 319 316 322 316 329 331 333 334 337 340 342 343 340 342 343 345 345 345 348 343 345 347 347 347 347 346 346 345 345 343 343 343 343 343 344 346 345 346 345 345 345 344 343 342 341 340 339 338 337 339 343 344 344 343 342 342 342 343 342 342 342 341 341 340 339 340 340 340 340
321 321 317 317 313 314 304 301 300 301 300 303 302 303 305 307 309 310 309 308 310 310 312 314 315 313 311 316 318 326 332 332 329 331 337 337 339 341 343 341 340 340 343 344 345 346 349 343 347 348 347 347 347 346 346 345 344 344 343 343 342 342 344 345 345 345 345 344 344 343 342 341 341 339 338 338 338 338 341 344 343 343 343 342 342 343 343 342 342 341 340 340 340 339 339 339 339
324 318 314 307 307 307 302 303 303 303 301 304 303 305 306 308 310 309 308 307 305 306 309 311 313 312 311 318 314 324 328 335 337 338 339 337 339 341 343 340 338 339 342 344 345 346 346 343 346 347 347 346 346 346 344 345 344 343 343 343 342 342 343 345 344 344 344 344 344 343 342 341 339 338 337 337 337 337 340 343 343 343 343 342 342 341 341 341 340 341 340 340 339 338 338 338 339
320 316 319 312 304 307 303 302 302 303 302 303 303 305 310 309 310 308 306 308 308 309 309 310 313 308 309 310 320 324 328 334 337 337 337 337 338 341 340 339 336 339 341 343 345 346 347 340 345 346 346 346 346 346 346 345 344 343 343 343 342 342 342 345 344 344 344 344 344 342 341 340 339 338 337 336 336 337 337 337 338 338 339 340 339 340 339 339 339 340 340 339 339 338 338 337 337
315 315 305 307 309 300 301 301 300 302 302 303 304 304 306 309 309 309 308 306 307 308 310 313 313 309 309 309 314 323 329 334 335 335 337 337 339 340 340 339 338 340 341 342 344 346 346 347 342 344 345 346 346 346 346 345 344 344 344 343 342 342 341 342 343 343 343 343 342 342 341 340 339 338 337 336 336 336 335 335 337 338 339 339 339 339 339 339 339 339 339 338 338 338 337 337 337
309 311 316 306 302 300 299 300 301 302 302 304 304 307 307 309 310 309 309 307 309 308 310 311 307 308 308 310 320 331 333 334 333 332 336 337 340 339 339 340 340 342 339 343 345 345 347 347 344 340 343 344 345 346 346 345 344 344 343 343 342 342 342 341 341 341 342 342 341 340 340 339 338 338 337 336 336 335 335 337 338 339 339 339 338 338 338 338 338 338 338 337 337 337 337 336 336
308 307 310 302 301 301 300 300 301 302 303 303 303 306 308 308 309 307 307 305 307 308 308 310 307 310 306 308 317 327 331 332 334 335 336 337 337 339 340 339 340 340 342 342 345 344 346 347 347 344 339 341 341 343 344 345 345 344 343 343 341 341 341 341 340 340 341 341 340 340 339 337 338 337 337 336 336 338 336 337 339 339 339 338 337 338 338 337 338 338 337 337 337 336 336 336 336
310 312 305 302 302 303 301 300 300 302 302 301 304 306 308 308 307 308 307 307 307 306 307 310 312 310 305 306 320 327 329 332 335 336 336 336 337 339 340 339 340 340 342 343 343 344 345 345 345 346 342 335 336 339 340 341 343 344 343 342 342 342 341 341 340 340 341 340 342 342 342 341 341 339 340 339 339 338 339 340 340 337 338 339 338 338 337 337 337 336 336 336 336 337 336 336 335
311 312 309 303 304 303 300 300 301 299 300 304 307 307 308 307 308 309 308 305 305 305 310 313 311 310 308 310 314 319 329 334 335 336 336 336 338 338 339 339 341 339 342 342 341 342 344 345 345 345 346 346 346 340 335 337 340 342 342 342 342 342 342 341 341 341 341 340 338 338 338 338 339 339 340 340 339 338 337 338 340 339 338 337 337 336 336 336 336 336 336 336 336 336 336 335 334
309 314 308 306 302 301 303 299 299 299 300 305 306 306 306 308 308 308 308 304 305 309 310 312 314 308 305 305 310 315 329 335 335 336 337 337 337 337 340 339 340 341 340 339 340 341 341 343 344 344 345 345 345 345 345 344 335 337 339 339 339 340 340 338 338 337 336 335 334 333 333 332 331 332 334 335 336 335 334 332 335 338 337 336 336 336 336 336 336 335 336 336 336 335 335 334 333
316 310 308 303 300 300 301 302 302 300 301 305 306 308 306 307 307 306 307 306 307 311 309 307 312 310 308 316 322 325 332 334 335 336 335 335 335 337 338 339 338 339 340 340 339 341 341 342 343 344 344 343 345 345 344 345 335 333 336 337 337 336 335 335 333 332 328 328 328 329 329 333 331 334 329 334 330 331 329 331 331 337 337 335 335 336 336 335 335 335 335 335 335 334 333 332 331
315 314 303 302 299 300 301 300 300 297 303 305 306 306 304 304 307 306 306 308 306 306 307 311 309 313 312 319 328 333 333 335 334 335 334 333 333 333 336 336 337 337 338 340 340 340 342 341 342 344 343 344 344 344 346 344 342 332 332 329 330 331 332 331 328 324 323 322 326 325 328 333 334 334 338 335 328 335 322 324 330 335 337 336 335 335 335 334 334 334 334 334 333 331 328 327 327
312 303 302 301 303 300 304 302 302 305 303 304 304 306 305 303 305 306 307 306 306 307 306 310 310 313 319 319 326 334 334 333 334 332 331 331 331 329 331 333 334 334 336 338 340 340 341 341 343 343 343 343 344 344 344 343 344 338 342 341 341 335 329 327 334 338 335 337 326 332 335 333 331 333 333 334 334 333 332 322 326 331 335 335 334 334 334 333 333 334 333 332 330 328 326 331 327
306 303 303 301 304 304 306 305 305 303 303 305 306 307 306 305 306 306 303 303 304 303 305 307 307 311 317 318 326 332 331 331 331 331 330 329 330 328 329 331 332 333 334 336 338 339 341 341 341 341 342 343 344 344 344 344 344 343 343 341 340 333 336 338 338 336 336 336 334 335 333 333 333 333 334 335 334 322 328 322 325 328 331 331 331 332 332 332 332 332 331 329 329 328 332 333 331
308 306 301 303 307 304 306 306 304 305 306 304 305 306 307 307 306 307 303 303 303 302 302 304 305 308 313 318 323 329 329 330 331 331 331 330 330 330 330 330 330 332 333 335 336 339 340 339 341 341 342 343 342 342 343 343 344 343 341 341 340 338 338 337 337 336 335 335 336 335 332 334 333 334 327 327 330 334 330 321 321 323 325 326 326 329 327 327 328 326 327 326 327 328 331 330 331
307 304 302 305 306 304 304 306 305 304 306 305 305 306 305 305 306 305 303 303 302 303 306 305 304 307 311 318 321 326 328 328 330 331 331 331 332 332 332 332 332 333 334 335 335 336 337 339 340 341 342 343 343 341 341 340 341 341 342 341 340 338 338 337 336 336 336 336 335 334 334 334 334 332 333 332 331 331 331 332 332 332 332 332 325 331 329 329 328 329 327 325 330 330 330 330 330
307 303 304 306 306 304 304 304 304 304 303 306 305 302 303 306 305 304 304 301 302 304 307 308 308 308 311 316 323 326 328 328 329 330 331 331 332 331 332 334 335 335 336 334 334 335 337 337 339 340 341 342 342 342 340 341 341 340 340 341 340 339 338 336 336 335 335 335 335 334 334 333 333 329 331 331 332 331 330 329 329 329 331 331 330 329 328 328 327 328 329 329 328 329 329 329 329
301 304 304 305 304 304 303 304 302 302 304 304 303 305 306 303 303 305 305 304 305 307 308 309 309 313 317 318 323 325 327 327 328 330 330 331 332 332 332 333 334 334 335 334 335 335 336 338 339 340 340 340 342 341 341 341 341 341 340 340 339 337 337 336 335 334 335 335 334 334 332 332 331 331 330 331 331 331 330 329 329 329 329 329 329 327 327 327 327 326 327 328 328 328 329 329 329
304 303 304 302 304 303 303 302 300 302 303 304 306 306 303 303 301 305 304 307 307 306 307 307 308 317 320 320 321 324 325 327 328 330 332 331 332 333 334 334 335 336 335 334 335 335 336 337 338 339 339 340 340 341 340 340 340 340 340 340 339 335 336 335 335 335 335 334 334 332 331 332 331 330 330 330 329 330 330 330 330 329 328 328 328 328 327 326 326 327 328 328 327 328 328 329 329
302 302 303 302 303 302 302 301 301 301 302 302 303 302 303 304 303 303 303 306 308 307 309 310 310 313 316 319 320 322 323 326 327 329 332 333 334 335 336 336 336 335 334 335 336 335 337 337 338 338 338 339 340 340 339 339 340 340 340 340 338 335 337 336 336 335 334 334 334 334 332 331 331 331 330 329 329 328 329 330 329 328 328 328 328 327 327 326 326 326 326 326 326 326 327 327 327
304 303 303 302 302 302 301 301 301 301 302 302 301 302 303 302 302 302 305 307 309 308 308 311 312 312 313 315 318 320 322 324 327 328 329 333 334 333 334 334 335 334 335 336 336 336 337 337 337 338 339 339 340 340 339 339 339 339 340 339 338 336 336 336 336 335 334 333 333 334 333 332 331 330 330 330 328 328 329 329 327 327 327 327 327 326 326 326 325 325 325 325 325 325 325 326 326
305 303 303 302 301 301 301 301 301 301 302 302 302 302 301 301 302 300 307 307 306 306 306 309 310 310 312 315 317 319 322 324 326 328 329 332 333 333 333 335 334 335 336 335 336 336 337 337 337 338 339 339 340 339 340 339 339 339 339 340 339 337 336 336 336 334 334 333 333 333 333 333 331 331 330 330 329 328 328 327 326 326 326 326 326 326 326 325 325 324 325 324 324 324 324 325 324
304 303 302 301 301 302 301 302 300 302 301 302 303 302 302 302 301 301 305 304 305 305 306 308 309 309 311 313 316 320 321 324 326 328 328 329 330 331 332 332 333 334 334 334 336 338 337 336 336 337 338 339 339 339 339 339 339 340 340 340 339 338 337 336 335 334 331 333 333 333 333 333 331 331 331 331 329 328 326 325 325 325 324 324 325 325 324 324 324 325 325 325 325 324 323 324 324
303 304 299 300 301 300 301 301 302 302 301 302 303 301 299 299 299 304 304 304 304 305 306 307 308 308 309 312 315 319 320 322 326 326 328 329 330 331 330 333 333 332 334 335 336 337 337 337 336 337 338 339 340 338 338 339 339 340 340 340 340 339 337 336 336 334 334 333 333 333 332 333 332 331 330 330 329 328 326 325 325 325 324 324 323 324 324 324 323 323 323 323 323 323 322 322 324
303 303 301 298 299 299 301 302 302 301 302 302 302 293 298 300 303 305 304 304 304 304 305 306 307 308 309 313 316 318 320 321 324 327 327 329 330 330 329 331 333 333 333 335 336 336 337 338 338 337 337 338 339 339 338 338 338 339 339 339 339 340 338 336 334 335 334 333 332 332 332 332 331 331 331 330 330 327 326 325 324 323 324 324 323 323 322 322 322 322 321 321 319 320 320 321 320
298 300 301 297 295 295 300 301 301 300 301 301 302 294 298 302 304 304 304 304 304 304 305 306 307 307 309 311 313 315 318 321 322 325 327 329 329 330 330 331 332 333 333 334 335 336 336 337 338 336 336 337 338 338 338 337 338 338 337 338 339 339 338 336 335 335 334 334 332 331 331 331 331 331 331 330 329 327 326 325 324 323 323 323 321 321 321 321 321 321 321 320 320 319 320 320 320
299 295 293 297 295 297 298 300 301 298 300 302 300 295 297 301 301 302 303 303 303 303 304 305 306 307 308 309 310 311 313 319 321 323 325 327 329 330 331 331 332 333 333 334 335 336 335 337 337 336 336 335 337 337 338 338 337 337 337 332 338 339 337 336 335 335 334 333 332 331 331 331 331 331 330 330 329 327 325 323 323 324 323 321 321 321 320 319 320 320 321 320 318 318 319 319 320
298 295 295 294 297 296 296 298 301 300 300 301 300 295 299 300 301 302 302 303 303 303 304 305 305 306 306 307 308 309 310 312 318 320 322 325 327 330 332 332 333 334 335 335 335 336 335 336 336 336 336 335 335 335 337 337 337 336 336 336 338 339 337 336 336 334 333 332 331 331 331 331 331 331 330 329 327 326 324 323 323 324 322 320 320 320 319 319 319 319 319 319 320 318 318 318 318
294 296 295 298 294 295 294 297 300 302 301 298 300 297 298 301 303 302 302 303 303 302 303 304 305 305 306 306 306 307 307 309 311 316 320 322 325 328 330 328 332 334 335 335 336 336 335 336 336 336 337 336 335 335 335 336 336 336 335 335 334 337 338 338 337 335 333 332 332 331 331 331 329 329 328 328 327 326 325 324 323 323 321 320 320 319 318 319 318 318 317 318 318 318 317 317 317
293 293 293 294 295 296 295 295 298 299 299 299 299 297 298 300 303 303 303 303 303 303 303 304 305 305 306 306 306 307 307 308 308 311 315 319 323 325 327 329 329 332 333 334 335 336 336 336 336 336 336 336 336 336 335 334 334 334 335 334 335 335 336 337 337 335 333 332 331 332 332 331 330 330 329 327 326 325 324 323 322 321 320 320 319 318 317 317 317 318 317 316 318 318 317 317 317
296 295 294 295 292 293 294 297 297 299 297 296 297 296 298 300 301 303 304 304 303 303 304 304 305 305 306 306 307 307 308 308 310 312 313 315 319 322 325 326 328 329 330 331 331 333 335 335 336 336 335 336 336 336 335 334 334 332 331 331 331 334 335 335 336 335 334 333 333 333 333 333 332 330 330 329 327 325 324 323 322 322 320 319 318 316 316 316 316 316 316 316 316 316 317 317 317
298 298 296 294 294 295 297 297 298 298 297 297 297 298 299 300 301 302 304 305 303 303 303 304 305 305 306 306 306 308 308 309 316 316 316 315 317 319 322 324 326 326 327 328 329 331 332 333 334 334 335 335 334 334 333 333 331 331 332 331 330 330 332 334 335 336 335 334 333 333 333 332 333 332 330 330 327 324 325 325 323 322 320 318 317 317 317 317 316 316 315 316 315 314 314 315 315
297 297 296 295 296 294 297 296 298 299 296 296 298 298 299 300 301 302 304 303 302 303 303 304 304 305 306 307 308 309 309 313 321 316 314 316 314 316 317 320 321 323 324 325 326 328 330 332 332 334 335 334 333 333 333 332 332 331 330 330 331 331 330 329 331 334 335 336 335 334 333 333 333 333 330 330 327 326 325 325 324 321 318 317 317 317 317 314 316 315 315 314 315 313 312 313 313
297 295 295 294 295 297 295 297 297 298 296 295 299 296 297 300 301 303 303 303 304 305 305 305 305 305 306 306 308 310 311 312 315 314 314 312 315 314 313 314 316 321 324 324 325 326 328 330 331 332 334 333 333 333 333 332 333 334 333 332 332 332 334 334 333 333 335 335 335 334 333 333 333 332 329 328 326 326 325 325 323 321 318 316 314 314 315 315 315 314 314 313 311 312 312 315 313
296 296 294 292 298 294 292 295 297 296 296 297 297 295 297 300 302 302 304 304 305 306 306 307 307 306 306 307 308 309 310 312 313 313 311 311 313 313 312 312 312 314 316 321 324 325 326 328 329 331 332 332 332 333 332 334 334 335 334 334 334 333 332 334 334 334 334 335 334 334 332 330 329 328 329 327 326 327 326 325 324 321 318 317 315 314 315 314 314 313 313 312 312 309 310 311 313
298 299 296 294 294 295 297 295 296 296 296 295 296 295 295 298 297 299 302 305 305 306 306 306 308 310 311 314 313 314 310 311 313 312 312 311 311 312 312 312 312 312 314 316 321 324 325 326 328 329 330 331 333 332 332 333 333 333 333 333 333 332 334 334 333 332 332 332 333 333 332 331 330 329 330 330 329 328 327 325 324 323 322 320 318 316 315 315 315 314 313 311 311 310 310 310 307
295 299 299 297 296 296 295 296 294 294 294 296 295 289 290 297 298 298 301 301 301 303 303 303 304 305 306 306 307 309 311 312 310 310 312 312 312 312 312 312 312 312 312 314 319 322 324 326 327 328 329 331 331 332 332 331 331 330 329 327 326 326 326 327 326 327 330 330 330 332 334 333 332 332 332 332 332 327 327 326 325 324 323 321 317 317 316 315 314 313 312 311 310 311 311 309 306
294 294 299 298 297 297 297 296 296 289 288 294 295 288 287 297 297 299 300 300 300 302 302 302 303 304 306 306 307 307 308 309 311 310 310 310 311 311 311 311 311 311 311 313 315 319 322 324 327 327 328 329 331 331 331 330 330 330 329 327 327 326 324 326 328 329 329 329 330 330 331 333 333 333 333 331 329 327 327 327 326 324 322 319 317 315 314 314 314 313 312 311 311 311 310 307 308
293 296 299 299 298 297 297 297 295 293 296 295 294 296 289 289 296 302 299 299 299 300 301 303 303 304 305 305 306 307 307 306 307 308 309 309 308 309 309 310 310 309 310 311 312 314 318 321 324 326 327 327 329 330 330 330 328 328 328 328 327 327 327 326 327 328 330 330 329 330 332 333 333 332 332 330 329 328 327 327 326 324 322 321 318 314 314 314 312 312 312 311 311 310 309 308 308
295 294 300 298 298 298 298 296 295 296 293 289 293 298 288 288 296 298 299 296 297 298 300 302 304 306 305 306 305 307 308 308 308 309 311 311 310 308 308 309 310 310 310 310 310 312 314 318 320 323 325 326 327 328 329 329 327 327 327 327 326 326 327 328 328 328 328 330 330 331 332 333 332 332 332 331 330 329 327 327 326 323 321 320 316 316 315 314 313 312 311 310 309 309 309 309 309
294 297 299 299 300 300 299 295 295 294 290 286 292 295 287 288 295 296 297 296 296 298 300 302 304 304 306 305 307 307 306 307 308 308 308 309 309 308 308 308 308 308 309 310 310 311 312 314 316 320 322 324 326 326 327 328 327 326 326 326 325 325 325 326 327 327 327 328 328 331 331 331 332 330 330 331 331 330 328 326 325 324 322 321 317 318 315 313 313 312 312 311 310 309 309 308 308
298 300 298 297 297 296 295 296 293 291 285 288 294 294 291 285 294 295 296 297 298 298 300 301 302 304 305 306 306 306 305 305 306 307 309 310 309 307 306 305 308 311 310 309 311 311 312 313 315 318 319 322 324 325 325 325 325 325 325 326 325 324 324 325 325 325 326 326 325 326 327 328 329 329 330 330 331 331 330 327 325 325 326 323 319 317 315 313 312 313 313 313 311 309 309 309 307
301 298 294 294 292 294 292 290 293 285 283 287 288 291 292 284 289 297 298 297 297 297 298 300 301 303 305 306 305 305 304 305 305 307 310 310 307 307 307 309 311 310 309 309 313 313 313 314 315 316 318 320 322 323 323 323 324 324 324 325 325 324 325 324 323 323 323 324 324 324 326 326 326 327 328 328 328 329 327 327 326 325 324 323 320 319 316 314 314 314 314 313 312 311 310 308 308
298 296 294 288 285 286 283 287 283 283 283 286 288 289 287 287 292 296 298 298 298 299 299 300 301 302 305 306 307 306 308 306 307 309 310 310 312 311 311 312 312 310 311 312 313 314 315 315 315 315 317 320 321 322 322 322 323 323 323 323 324 324 324 324 323 323 323 323 323 323 323 323 324 324 325 326 327 328 328 326 325 323 323 323 322 321 319 318 315 314 313 312 311 310 309 309 308
295 292 290 286 283 282 280 283 286 286 285 286 288 291 285 291 294 298 298 300 299 300 300 301 301 301 302 304 305 306 309 307 308 310 311 312 312 313 313 312 313 313 313 313 314 315 316 316 316 316 317 320 320 320 321 321 322 322 323 323 323 323 323 324 323 323 323 323 323 322 322 322 322 322 323 324 325 326 326 326 325 325 325 325 323 322 321 319 317 315 314 313 312 312 311 310 309
294 303 294 289 288 284 279 283 281 282 285 284 288 285 285 287 292 297 300 300 300 299 299 301 301 302 302 303 304 305 307 306 308 312 312 312 312 312 313 313 313 314 313 314 314 316 317 317 318 318 318 318 318 318 319 319 320 321 322 323 323 323 323 323 323 323 322 322 323 322 322 322 322 322 322 323 324 324 324 325 325 325 324 323 323 321 320 320 318 317 315 315 314 314 312 310 309
296 297 297 290 289 293 285 285 285 285 284 283 283 285 292 292 300 301 302 301 299 298 298 298 299 301 303 303 305 307 306 306 308 311 312 311 311 311 312 312 313 313 313 314 314 316 316 317 318 319 317 316 316 316 317 319 319 320 321 321 322 322 322 322 322 322 322 322 322 322 322 322 322 322 323 323 324 323 322 322 322 322 323 323 323 321 319 318 318 316 315 314 313 313 311 310 309
292 293 288 291 295 291 284 283 283 282 283 283 290 288 292 297 298 299 300 299 298 297 296 297 299 301 302 304 306 307 307 307 308 311 312 311 310 310 312 312 312 312 313 314 314 316 317 318 318 318 316 315 314 315 317 318 319 318 319 320 320 320 319 319 320 320 321 321 322 322 321 322 322 322 322 322 322 322 321 320 319 319 320 320 321 321 320 318 317 316 315 314 312 312 311 310 309
294 286 292 295 297 297 290 283 284 283 281 283 288 286 287 289 286 298 297 297 298 297 297 297 299 302 300 304 309 309 309 306 305 306 307 309 311 310 311 311 312 313 313 314 314 316 318 318 318 318 316 314 314 314 315 317 317 317 317 318 318 318 318 318 319 320 321 320 320 320 321 320 320 321 320 321 319 318 319 317 318 317 317 318 318 318 318 318 317 315 315 314 314 313 311 310 310
295 293 302 291 285 285 288 286 280 280 280 282 286 287 287 290 290 294 294 294 296 297 298 296 296 298 301 305 307 307 305 307 306 307 309 311 311 312 312 311 311 312 313 314 314 314 315 316 318 317 316 316 316 316 316 317 318 318 318 317 318 318 319 319 319 320 320 319 319 318 318 319 319 319 318 317 316 315 315 315 315 315 315 315 316 316 316 315 316 315 314 312 313 313 311 310 310
297 296 294 296 292 289 286 286 287 286 282 282 283 284 284 293 292 294 295 297 298 297 298 297 299 301 302 305 307 307 306 305 306 306 308 309 310 310 311 311 310 310 310 310 311 312 313 314 314 316 317 317 317 316 317 317 318 318 318 318 318 319 319 319 319 319 318 317 317 317 317 317 317 317 316 316 315 314 314 313 313 313 313 313 313 313 313 313 313 312 312 311 312 311 309 309 309
290 291 289 292 294 294 292 293 287 285 283 283 283 282 287 296 297 296 297 297 297 297 299 301 301 301 302 304 306 307 306 305 305 308 308 309 310 309 309 308 308 308 308 309 310 311 312 312 313 313 313 313 314 315 315 315 315 315 315 315 315 315 315 315 315 316 315 315 315 315 315 315 315 314 313 313 312 312 312 311 311 311 311 311 310 311 311 311 311 310 310 310 310 310 309 308 308
293 292 290 291 289 286 284 283 290 285 285 283 283 282 289 297 296 297 297 297 298 299 300 301 300 299 302 304 304 304 305 303 303 307 308 309 309 308 308 307 307 308 308 308 308 309 310 311 312 312 312 313 312 312 313 313 313 313 313 314 313 313 313 312 312 312 312 312 312 312 312 312 311 311 311 311 310 311 310 310 309 309 309 309 309 309 309 309 309 309 309 310 309 309 308 308 308
Wind_Speed
8 5 4 4 4 4 5 3 5 5 5 3 3 4 6 4 5 7 8 8 7 5 4 4 6 6 2 5 8 5 8 9 8 5 4 4 8 9 9 11 12 11 11 11 11 10 11 11 11 12 12 11 11 11 11 10 10 9 8 7 7 10 11 11 11 11 11 13 13 13 13 13 13 13 13 13 13 14 14 15 15 14 14 15 15 15 15 15 15 16 16 16 16 16 15 16 15
6 5 5 4 4 2 4 0 5 2 4 2 2 1 8 7 6 7 9 5 5 7 5 5 6 3 3 4 3 0 8 8 10 7 7 7 10 8 10 11 12 12 11 10 11 10 11 11 10 11 12 11 11 11 11 11 10 9 9 8 7 7 12 11 11 11 11 13 13 13 13 12 12 13 11 12 14 13 12 13 14 14 14 14 14 15 15 15 15 15 16 16 16 16 15 16 16
6 6 3 3 4 5 3 4 6 4 4 4 6 4 7 7 5 7 8 8 10 9 5 6 6 4 2 3 5 5 5 4 8 10 8 9 10 7 10 11 11 10 12 10 10 10 9 10 9 11 11 11 11 11 11 10 10 9 8 8 8 8 12 11 11 11 11 13 13 13 13 12 12 11 12 12 12 12 11 11 13 13 13 14 14 15 15 15 15 15 15 15 16 16 16 15 16
7 3 4 3 4 2 6 4 7 4 6 4 6 6 7 6 7 11 10 10 9 8 6 8 6 2 4 1 5 1 7 5 6 9 8 8 5 10 10 11 10 9 9 8 9 10 9 11 9 10 11 11 11 11 10 10 9 8 8 7 8 7 10 11 11 11 11 11 13 13 12 12 12 11 11 11 12 11 11 11 12 12 13 14 14 14 14 14 14 15 15 15 15 15 15 15 16
5 3 3 4 5 6 5 4 5 3 4 3 4 8 7 6 10 9 9 8 8 7 7 7 4 4 2 4 4 3 6 8 7 7 7 6 10 10 10 9 10 9 9 10 9 9 11 12 9 10 11 11 11 11 10 10 9 8 8 8 7 7 10 12 11 11 10 10 12 13 13 12 11 11 11 11 9 11 14 14 13 13 13 14 14 14 14 14 14 14 14 14 15 15 15 15 15
4 4 3 4 3 4 3 3 6 7 4 6 3 7 7 6 9 10 10 8 5 4 1 8 2 5 4 1 4 2 2 1 7 7 9 8 10 13 11 9 8 9 9 9 9 9 11 12 9 10 11 11 11 11 10 9 9 8 7 7 7 8 11 12 11 11 11 10 12 13 13 11 11 11 11 10 9 11 13 12 13 13 12 13 13 14 14 14 14 14 14 14 15 15 15 15 15
2 4 3 4 2 2 6 6 5 5 5 4 5 5 7 7 9 11 10 8 4 2 2 5 3 3 5 4 4 5 5 5 5 8 5 11 11 12 12 9 9 10 9 9 9 10 13 11 9 10 10 11 11 10 10 10 9 8 7 7 8 8 10 11 11 11 11 11 12 12 11 11 11 10 9 9 9 10 11 13 13 12 12 12 13 14 14 14 14 14 14 14 14 14 14 14 14
3 3 4 6 5 4 7 4 2 2 4 5 3 2 8 8 10 9 10 9 7 5 7 1 3 6 6 2 1 5 5 6 8 9 13 12 13 12 10 9 10 10 9 8 9 10 12 10 8 10 10 11 10 10 10 9 8 8 7 7 7 7 9 11 11 11 11 10 11 11 11 11 10 10 9 9 8 9 10 12 13 13 12 13 12 13 14 13 13 14 14 14 14 14 14 14 14
4 6 2 4 6 4 5 5 2 4 5 3 4 4 6 8 9 9 10 3 10 3 10 7 4 6 7 5 5 6 5 6 8 9 12 13 13 12 8 9 10 9 9 8 9 11 10 9 9 9 9 10 10 10 10 10 9 8 7 7 7 7 8 11 10 10 10 11 11 10 10 10 10 9 9 9 8 9 9 9 10 10 11 11 12 12 12 12 12 13 13 13 13 13 14 13 14
5 4 6 5 4 7 6 4 5 3 3 4 2 6 7 6 8 8 9 6 7 6 7 5 3 4 2 4 7 6 6 7 9 9 11 13 13 11 10 9 10 10 9 9 9 10 9 8 8 7 8 9 9 10 10 10 9 9 8 7 7 8 8 9 10 11 11 10 10 9 9 9 9 9 9 9 9 8 8 9 9 10 10 11 11 11 11 11 11 11 12 12 12 13 12 12 13
5 5 3 5 6 6 7 5 4 5 5 4 4 4 6 6 7 7 8 6 6 7 7 4 4 5 4 4 5 5 9 9 10 12 12 13 12 11 10 7 10 10 9 9 8 9 10 10 8 7 7 7 8 9 8 8 9 9 8 8 7 7 8 7 8 10 10 10 9 8 8 8 7 8 8 8 8 7 6 9 10 10 10 10 10 10 10 10 10 11 11 11 11 11 12 12 12
3 6 5 7 7 6 7 3 5 5 4 4 5 7 4 8 7 7 7 7 7 5 8 10 1 5 3 3 5 7 9 9 10 11 12 12 11 11 10 8 8 10 9 9 8 8 10 10 9 7 6 7 7 8 8 7 7 9 8 8 8 7 7 7 7 9 9 8 8 8 7 6 7 7 8 8 8 5 7 8 11 9 9 9 10 10 10 10 10 11 11 10 10 11 11 11 11
4 4 7 7 4 5 6 1 4 4 5 6 7 6 6 9 9 8 8 4 9 7 7 9 2 4 4 3 6 9 10 10 11 12 12 12 11 10 9 8 8 9 10 8 8 8 9 10 9 9 8 7 7 8 7 6 7 7 8 8 7 7 7 7 6 6 6 7 7 7 7 7 6 7 8 7 7 6 9 6 6 10 11 10 11 11 10 10 10 10 9 9 10 10 10 10 10
5 3 3 6 2 2 4 2 5 5 5 7 6 9 8 8 9 5 7 6 8 6 6 6 2 2 0 6 6 7 8 12 13 12 10 11 11 9 9 8 9 9 10 8 9 8 8 9 9 10 10 9 9 7 7 7 7 7 8 7 6 7 7 6 6 6 8 9 8 8 8 9 10 9 7 6 8 8 8 9 9 10 10 10 10 9 10 10 10 9 9 9 10 10 10 9 9
5 2 3 0 3 4 2 4 6 6 5 10 7 10 9 1 1 2 7 8 6 8 4 2 3 3 4 7 7 8 12 14 14 12 11 11 11 9 9 7 9 8 9 10 10 9 9 8 8 9 10 9 10 8 8 8 8 8 8 7 7 7 7 7 7 8 8 9 9 8 9 10 10 9 8 7 8 7 6 8 8 7 9 9 9 9 9 9 9 9 9 10 10 10 10 9 8
5 3 4 4 5 7 6 3 3 5 5 8 8 9 9 5 2 6 2 7 5 3 4 5 2 2 5 6 9 12 16 15 14 12 11 10 10 9 9 8 10 9 8 9 9 9 8 9 8 8 9 9 9 8 8 9 8 9 8 7 8 8 8 8 9 9 8 8 8 8 8 8 8 8 8 7 7 8 8 8 7 7 7 8 9 9 8 8 8 8 9 9 10 9 9 9 9
2 4 4 5 6 8 7 6 7 5 9 8 9 10 10 7 5 1 3 2 3 6 5 2 4 1 5 6 7 13 14 14 14 14 12 10 10 9 8 8 8 9 7 9 9 9 9 9 9 7 8 8 8 8 8 8 8 9 8 8 8 8 8 9 9 9 8 7 7 7 6 5 5 5 6 6 6 6 8 9 9 9 9 9 8 8 8 7 7 7 8 8 8 10 9 9 9
3 5 6 6 4 10 7 6 6 6 8 9 10 11 10 8 7 4 2 3 4 4 6 4 2 3 7 7 3 10 13 15 15 15 13 11 10 10 10 9 9 10 9 9 10 9 9 8 9 8 7 8 7 7 6 7 8 9 8 7 7 6 6 8 7 6 6 5 5 6 5 4 4 5 5 6 5 6 7 8 9 9 9 8 7 7 7 7 6 7 7 7 8 9 7 5 5
6 5 6 6 6 2 3 3 5 2 7 11 10 10 9 7 11 7 7 8 8 6 7 6 6 7 8 9 8 11 13 14 15 15 15 15 12 13 12 11 11 10 10 9 9 11 9 9 9 10 8 8 8 7 6 6 9 8 9 8 6 7 7 7 6 6 5 5 6 5 3 4 4 4 4 5 6 11 9 9 9 9 10 11 11 11 9 8 7 6 6 5 7 6 5 4 4
6 5 6 5 4 6 4 3 4 5 4 11 10 9 6 5 8 8 8 7 9 9 7 9 9 10 10 10 11 10 12 15 15 15 15 15 13 13 12 12 12 12 12 10 10 9 10 9 10 10 9 9 8 6 6 6 7 7 7 7 7 6 6 6 5 5 5 5 5 4 2 4 3 5 8 10 9 6 6 9 10 11 10 10 11 7 8 8 8 7 2 2 4 5 3 3 4
4 6 5 4 7 5 4 2 6 4 5 9 9 8 7 6 5 8 7 6 8 8 9 10 11 10 12 12 13 12 13 15 15 15 15 15 13 11 10 11 10 10 9 10 10 10 11 11 10 10 9 9 9 7 6 6 6 6 6 7 6 6 6 6 5 5 4 4 4 4 2 4 3 4 5 5 4 4 5 5 5 4 4 5 5 3 3 3 3 3 3 5 6 3 1 3 3
2 7 5 4 4 4 6 4 5 3 6 5 8 11 8 7 4 9 8 8 5 9 10 9 9 11 13 14 13 12 14 14 16 16 15 15 15 13 11 10 10 9 9 9 10 11 12 12 11 10 10 10 10 8 8 6 6 6 7 7 6 6 6 6 6 5 5 5 5 3 3 4 3 4 5 5 4 4 5 4 4 4 4 4 5 2 2 4 3 4 5 5 2 3 2 2 3
7 3 0 4 5 3 3 4 3 0 3 5 8 8 7 9 6 9 9 11 6 7 8 8 7 4 12 13 14 13 13 14 15 16 16 15 15 14 12 10 10 10 9 10 10 9 11 12 11 10 10 10 11 9 8 7 7 7 7 6 7 7 6 6 6 5 5 6 6 5 4 4 4 4 5 4 4 4 4 4 4 3 4 4 5 3 3 2 3 3 4 3 2 1 2 1 3
7 4 6 3 5 4 3 4 3 1 3 5 3 5 6 9 8 4 9 11 6 7 8 6 4 5 9 13 13 14 15 15 16 16 16 16 16 16 13 12 10 9 9 10 10 9 10 12 12 12 11 10 10 10 9 8 7 8 7 6 6 6 6 6 6 6 5 5 6 5 5 5 4 4 4 5 4 4 4 3 3 3 4 4 4 3 2 3 4 3 3 2 2 2 2 3 3
10 3 4 4 2 4 3 3 3 2 1 3 1 6 6 8 1 4 10 11 5 6 4 5 5 5 8 10 13 13 13 13 13 13 12 11 12 13 12 9 10 10 11 11 10 11 11 11 12 13 12 12 10 10 10 9 8 8 8 7 8 6 5 6 6 6 5 5 6 6 6 5 5 4 5 5 5 4 4 4 3 3 3 3 3 3 4 4 4 3 3 3 3 3 3 3 3
11 2 6 5 4 4 3 3 3 4 2 2 5 6 3 2 3 7 8 7 6 7 5 5 6 5 8 10 12 12 12 14 13 13 14 11 11 13 14 12 10 11 11 11 11 10 11 13 14 13 13 12 11 10 9 9 8 8 8 8 7 7 7 7 6 5 6 6 6 7 7 6 5 5 5 5 5 5 4 4 4 3 3 3 4 4 4 4 4 3 4 3 3 3 3 4 3
2 7 5 5 5 4 0 1 3 3 2 5 6 6 3 2 4 6 10 5 6 6 7 6 6 6 8 8 9 11 12 13 14 12 11 11 11 12 13 13 12 11 11 11 11 10 10 13 13 14 13 11 11 11 10 9 9 9 9 8 7 8 8 8 7 5 6 7 7 7 7 7 6 5 5 5 5 5 5 4 4 4 4 3 3 4 3 4 3 4 4 4 4 4 4 3 4
5 9 8 6 4 2 3 3 4 4 3 5 4 4 2 4 3 6 6 4 5 8 8 8 8 8 8 9 9 8 9 10 10 11 14 14 11 11 13 12 13 11 12 12 10 10 11 13 14 14 14 11 11 12 10 10 10 9 9 9 8 9 9 8 7 7 7 7 7 7 8 7 7 6 6 6 5 5 5 5 4 4 4 3 3 3 3 4 3 3 2 3 3 3 4 3 4
7 10 7 5 5 4 4 4 4 4 2 4 3 2 7 7 9 11 7 4 6 7 9 8 9 9 9 9 8 8 9 9 9 10 12 12 11 11 14 13 13 12 10 11 11 11 12 13 13 14 14 13 13 13 11 10 10 9 9 9 9 8 9 7 9 8 7 7 7 7 8 8 7 6 6 7 6 5 5 5 5 4 4 4 4 3 3 3 3 3 3 2 3 3 4 4 4
5 6 5 6 6 7 6 2 2 4 2 3 3 6 8 15 16 8 8 7 6 7 7 8 8 8 8 8 8 8 8 9 10 11 10 11 11 12 12 12 13 12 9 9 12 12 10 8 9 10 13 15 14 13 11 10 11 10 8 9 9 10 8 9 9 8 7 7 6 7 8 8 8 7 7 7 7 6 5 5 5 5 4 4 4 4 4 4 4 5 4 4 5 5 5 5 4
7 5 3 7 7 7 7 5 5 5 3 4 3 7 8 3 12 9 6 5 8 8 8 8 8 9 8 8 8 8 9 10 11 12 12 12 11 10 12 11 13 12 9 10 13 14 13 10 9 9 12 14 13 13 12 11 10 10 10 10 9 9 7 6 8 9 8 7 8 8 9 8 8 8 8 7 8 7 6 6 6 5 5 5 4 5 5 5 5 5 5 5 5 5 6 5 5
5 7 8 7 9 5 6 3 6 7 4 6 5 8 10 3 8 6 5 6 6 8 9 9 8 8 8 8 8 8 9 9 11 11 12 12 11 10 11 12 13 14 13 12 12 12 13 12 12 11 12 15 15 14 14 12 11 10 9 9 9 9 8 8 6 7 8 9 8 8 9 9 9 9 9 8 8 6 6 6 6 5 6 5 5 5 5 5 5 5 6 6 6 6 6 6 5
6 8 6 9 8 5 6 5 3 2 5 7 10 6 4 5 6 4 3 7 8 8 9 8 9 8 8 7 7 8 8 9 10 12 12 11 11 10 10 12 12 13 13 12 12 13 14 14 13 13 14 14 14 15 14 12 11 11 11 10 10 10 10 9 9 7 6 8 8 7 8 8 9 10 9 9 7 6 6 5 5 6 7 6 5 5 6 6 6 5 6 7 7 6 6 7 6
8 7 6 5 11 6 5 5 4 3 5 8 10 8 12 0 6 6 6 6 8 9 10 9 8 7 8 7 7 8 8 9 11 11 13 12 10 13 11 10 12 12 12 12 12 13 14 13 13 12 11 13 12 12 13 12 11 11 10 10 9 10 10 9 7 6 8 6 7 8 9 9 8 9 10 9 7 7 7 7 6 6 6 6 6 6 6 6 6 7 7 7 7 7 7 7 8
8 9 7 3 4 6 4 6 7 7 7 8 9 13 14 15 6 7 9 8 7 7 7 7 7 8 8 9 8 9 9 10 10 10 12 13 13 12 11 11 11 11 10 13 12 11 11 11 11 12 12 12 12 11 11 12 12 11 10 10 10 11 10 10 10 8 7 7 7 8 9 9 9 11 10 10 8 7 7 6 6 7 6 6 6 6 6 7 7 7 8 7 7 8 7 6 7
10 13 10 5 7 6 6 5 4 6 9 9 12 11 13 13 14 10 8 10 8 8 7 6 7 7 7 8 9 9 9 11 9 8 9 10 11 10 10 10 10 10 10 11 12 12 12 11 11 11 12 12 11 11 10 10 10 10 10 10 10 9 10 9 10 11 9 9 9 10 10 10 10 10 11 10 9 8 7 7 8 7 7 7 7 7 7 7 8 8 8 8 7 7 7 6 5
5 9 8 7 6 6 6 6 4 1 3 10 12 13 13 12 11 9 10 9 8 9 10 9 9 9 9 9 10 10 11 11 6 7 6 8 8 9 9 9 10 11 11 11 12 13 13 12 12 13 12 12 11 11 11 11 11 10 10 11 10 10 10 10 10 9 8 9 12 9 9 9 11 10 10 10 9 9 8 8 8 8 8 8 7 8 9 8 8 8 7 7 8 7 6 6 4
5 6 7 6 5 4 4 4 4 2 4 6 8 11 13 13 13 13 11 11 13 12 13 13 13 12 11 11 12 12 11 6 5 5 6 7 7 7 7 7 10 12 12 13 13 14 14 14 14 13 11 12 12 12 10 11 11 11 11 11 10 9 9 10 10 11 10 7 9 12 12 12 12 11 11 10 9 8 8 8 9 8 8 7 7 6 6 6 7 8 6 6 6 7 6 6 5
2 5 5 6 6 4 4 5 4 4 3 8 3 8 11 13 13 13 14 14 13 13 13 14 13 13 12 12 12 12 10 10 8 10 8 8 8 9 8 8 8 11 11 13 13 13 13 13 12 12 11 11 12 12 11 10 10 10 10 8 10 8 9 8 8 9 9 10 7 6 9 10 12 9 8 7 6 8 9 9 8 8 8 6 5 6 7 8 8 8 8 6 4 4 6 5 8
4 5 5 7 3 7 4 4 5 3 4 3 4 8 10 11 13 15 14 13 13 12 13 13 11 13 13 13 12 11 11 10 11 9 10 9 9 9 8 8 8 8 9 10 12 13 11 11 12 12 11 12 11 12 10 10 10 9 8 7 8 9 7 9 9 8 9 10 11 11 7 5 7 8 7 8 7 9 10 9 8 7 7 7 7 8 9 9 8 8 8 9 8 6 6 8 7
5 5 5 4 3 3 4 4 3 3 3 1 7 9 11 11 12 11 12 13 11 8 5 7 7 7 6 3 3 4 8 9 8 8 8 9 9 10 10 9 8 8 9 9 10 11 9 13 12 13 12 12 11 11 12 10 8 8 8 7 6 7 1 4 8 9 10 10 9 10 11 9 10 9 10 11 10 10 9 8 7 7 7 8 8 9 9 10 9 7 8 8 9 10 8 5 3
6 5 4 3 4 4 7 7 6 3 4 4 2 4 7 8 13 13 7 4 9 9 9 12 12 11 10 11 12 10 8 7 7 7 7 7 8 7 8 8 8 8 9 9 9 10 10 10 11 12 10 10 11 11 12 10 9 9 9 8 9 9 10 10 11 11 10 11 11 9 10 11 12 12 12 13 11 9 8 8 7 8 8 7 8 9 7 5 6 8 9 8 9 9 8 3 3
5 4 5 1 0 3 6 6 3 3 6 3 3 6 4 3 3 6 7 5 7 6 8 10 10 9 9 9 8 8 9 7 7 8 8 8 8 7 7 7 8 8 8 8 8 9 10 9 10 11 10 9 9 10 12 10 10 9 10 10 9 9 9 9 9 8 7 7 7 9 9 9 10 8 7 6 6 8 8 8 8 8 7 6 5 4 5 6 5 7 6 7 8 7 5 8 9
5 3 1 4 4 5 6 6 5 4 4 3 3 3 5 7 8 1 5 4 6 9 10 11 9 9 8 7 7 6 5 5 4 5 6 7 8 9 9 8 8 8 7 7 7 8 10 10 10 11 9 9 9 9 11 11 10 10 9 10 9 9 9 8 9 9 8 7 8 8 7 7 8 10 8 8 9 9 9 8 8 7 7 7 5 4 6 6 5 5 7 7 6 5 8 9 10
0 1 1 5 3 4 5 5 3 2 3 4 6 4 3 7 3 4 3 6 9 10 10 11 9 6 6 5 4 4 3 3 4 4 5 6 7 7 7 6 6 5 6 7 7 8 8 9 9 10 9 9 9 11 10 11 10 9 9 9 9 8 8 7 6 7 8 9 9 8 8 6 6 7 8 8 9 9 9 9 8 8 8 7 7 6 7 8 10 9 8 8 8 9 9 10 9
1 3 5 5 4 4 3 3 3 2 4 6 6 7 5 10 5 5 4 6 7 7 8 6 5 4 3 3 3 2 1 2 3 5 5 5 5 5 5 3 3 4 3 4 5 6 7 8 10 11 11 9 9 11 11 11 11 9 9 9 10 9 8 7 7 7 7 7 8 8 8 8 7 6 7 8 7 7 7 8 8 9 9 8 8 8 7 7 8 9 9 9 10 10 9 9 11
9 6 9 7 5 3 2 0 2 3 6 7 5 2 3 6 3 5 5 5 5 6 5 4 4 4 3 3 3 1 1 1 2 4 4 4 3 4 4 6 5 5 4 6 6 7 8 8 10 11 11 9 9 11 11 11 11 10 9 9 10 10 10 9 8 7 6 6 8 7 6 6 7 7 6 6 8 7 6 7 8 8 8 7 7 8 8 8 8 10 11 10 10 11 9 10 11
6 4 6 7 3 3 3 2 2 3 6 3 4 1 2 6 3 4 1 4 2 0 1 4 4 4 4 3 2 2 2 3 3 3 3 2 3 4 5 5 5 6 6 6 6 6 7 8 9 11 11 10 9 10 11 10 10 9 8 9 10 10 10 9 9 8 8 7 6 7 5 5 7 5 5 5 6 4 3 4 6 7 8 7 8 7 7 7 7 8 9 9 9 10 10 10 8
2 7 8 6 4 3 4 3 5 7 6 3 2 1 2 12 13 4 5 4 3 5 4 1 3 3 3 3 2 1 1 3 2 2 2 1 2 4 5 5 5 6 6 7 7 6 7 7 9 11 11 10 9 10 10 10 9 9 9 9 9 9 9 9 8 8 7 7 6 5 5 5 4 4 5 7 6 5 5 5 5 4 5 6 6 6 8 9 8 9 9 10 10 10 10 12 11
7 9 8 7 6 5 6 6 3 2 3 3 3 1 5 7 8 14 17 13 3 3 1 1 3 3 3 3 3 3 3 3 2 1 1 1 2 2 3 4 4 4 5 6 6 6 6 6 8 9 10 9 9 9 8 9 9 9 9 9 9 8 9 8 7 7 7 7 7 7 8 7 6 7 5 5 5 6 6 6 6 6 6 5 6 7 7 8 9 9 11 11 11 10 9 12 12
8 0 6 4 4 3 5 5 6 3 0 3 5 0 4 1 1 5 4 3 1 2 2 2 2 3 4 4 4 4 3 0 1 1 1 1 2 2 2 3 3 4 5 5 5 5 5 6 7 9 9 8 8 8 7 9 9 10 9 9 8 7 8 8 7 5 6 7 7 6 6 6 6 6 6 5 5 6 7 6 6 6 6 6 6 5 5 6 7 8 8 9 9 7 7 8 9
1 1 2 1 4 3 2 2 2 1 1 3 2 5 4 6 5 5 7 6 3 4 3 3 3 4 3 3 3 2 1 0 1 1 2 2 2 2 2 3 3 3 4 4 5 4 5 5 6 7 8 8 7 8 9 10 9 8 6 8 7 5 2 2 2 1 5 7 7 7 6 6 6 6 6 6 6 5 5 7 7 7 7 7 6 6 5 5 6 7 7 7 9 5 8 9 9
5 2 3 1 4 5 4 1 2 0 1 5 4 4 7 6 10 13 9 5 4 5 4 3 3 3 3 3 3 3 2 1 1 1 2 3 3 2 2 3 3 3 3 3 4 4 5 5 6 7 8 8 9 9 9 9 9 8 8 6 5 5 5 7 8 8 8 7 7 6 6 7 6 6 5 4 5 5 5 7 8 8 8 8 8 7 7 5 5 6 7 7 8 6 8 9 9
6 2 7 3 1 2 1 3 2 2 5 3 3 6 7 2 4 2 2 5 2 5 3 1 2 3 3 4 4 3 3 2 1 0 1 2 3 3 3 2 3 3 4 4 4 4 3 4 5 6 8 8 8 8 9 8 8 8 8 8 8 8 8 8 8 8 7 7 6 6 6 5 6 4 4 3 4 6 6 6 7 8 8 8 9 8 7 5 6 5 6 7 7 7 8 8 8
2 1 2 6 3 4 4 2 4 3 5 4 5 7 7 6 8 2 4 3 2 4 2 1 2 4 5 5 5 5 4 3 2 1 2 2 2 3 3 3 3 4 4 4 4 4 3 3 4 5 6 7 8 7 7 7 7 6 6 8 9 8 8 7 7 7 6 6 6 5 4 4 3 3 4 4 4 5 5 5 6 7 7 7 7 7 6 5 5 4 4 5 6 7 8 9 8
2 0 2 3 2 3 5 5 2 2 5 3 3 3 4 6 6 10 11 10 6 3 3 2 3 3 3 3 4 5 5 3 2 2 2 2 3 4 4 4 4 4 4 4 4 3 3 3 3 4 5 6 7 7 7 6 6 6 6 6 7 6 6 6 5 5 4 4 4 3 4 4 3 3 3 3 4 5 5 6 5 5 5 5 6 5 5 5 4 4 5 6 7 7 8 9 8
5 5 6 2 1 2 3 1 3 2 3 6 6 6 3 1 5 6 4 1 4 2 3 2 1 2 1 2 3 4 4 2 2 2 2 3 3 4 5 5 4 4 4 4 3 3 3 3 3 3 4 5 5 5 5 4 5 4 5 5 5 4 4 3 3 2 2 2 2 3 2 2 1 2 2 4 5 5 5 5 5 5 5 4 5 5 4 5 5 5 5 6 7 8 8 7 7
8 10 10 12 7 4 5 5 2 0 3 4 5 7 3 2 0 4 3 3 3 2 3 4 2 1 1 2 3 3 2 2 1 1 2 3 3 4 5 4 4 4 4 4 4 3 4 4 4 4 4 3 4 4 3 4 3 3 4 4 4 3 3 3 2 2 2 1 1 1 1 1 2 3 3 4 4 3 3 4 4 4 4 4 5 5 5 5 5 5 6 5 6 8 9 8 7
Wind_Direction
280 260 291 273 268 256 287 216 253 170 230 237 102 205 111 114 112 143 113 138 141 92 88 130 112 146 342 9 10 24 37 17 22 331 42 99 155 117 136 130 134 136 132 131 130 135 132 122 122 119 116 112 111 107 99 94 91 94 98 89 77 92 91 97 103 107 107 102 100 100 96 91 92 94 90 84 96 101 88 87 82 75 70 70 76 78 78 78 78 76 76 76 76 76 77 77 77
300 307 264 257 256 271 209 311 271 186 232 198 121 105 117 120 188 146 138 148 95 130 120 145 142 132 15 331 314 250 66 48 33 78 85 125 147 128 133 138 144 138 135 135 138 137 129 125 122 121 119 116 112 108 103 102 98 97 99 96 91 83 87 94 103 105 107 103 103 102 99 94 86 86 89 92 90 83 83 86 89 87 88 82 79 79 77 78 78 77 78 77 77 77 77 78 78
318 299 245 225 224 244 316 223 247 212 223 203 125 114 123 149 161 142 131 94 104 121 135 143 136 153 177 223 195 335 84 69 87 87 107 145 140 143 157 137 143 139 135 139 137 134 132 123 125 122 117 115 111 110 110 107 107 104 98 93 86 89 92 91 98 105 107 109 105 102 99 96 95 89 83 83 83 83 78 81 87 85 78 78 77 77 79 79 77 77 78 77 77 77 77 78 78
291 278 282 266 214 202 236 206 257 252 225 44 129 121 165 158 133 92 84 97 114 132 146 140 171 114 296 164 39 284 97 99 64 116 121 169 140 139 152 144 138 139 136 136 139 134 127 126 126 124 122 118 117 113 113 110 107 103 94 95 93 89 87 84 96 108 106 105 108 105 103 99 93 90 91 86 82 86 75 71 78 80 82 81 80 77 78 79 83 83 81 81 78 77 77 77 78
281 265 265 269 277 203 239 249 267 263 248 162 104 137 157 158 115 111 97 105 127 153 168 162 174 135 316 323 323 330 71 97 113 106 129 130 107 135 146 143 152 142 144 143 141 128 122 120 126 126 126 126 121 117 114 111 109 105 96 85 85 84 82 82 97 107 108 106 106 105 100 96 93 90 89 90 91 83 69 68 73 76 78 86 91 87 86 84 81 79 79 78 79 77 77 77 78
271 268 211 263 253 356 278 218 215 236 40 333 109 136 153 129 128 120 118 120 116 159 190 177 304 144 183 158 11 44 19 181 118 113 135 111 135 141 142 163 146 148 149 143 136 131 128 123 130 133 131 126 123 120 115 115 113 110 105 92 86 86 87 86 92 102 106 107 108 107 104 101 98 93 84 80 83 78 75 78 79 78 82 85 85 92 88 85 86 84 81 80 81 80 78 78 80
264 227 182 199 212 223 241 227 208 217 70 349 40 121 147 131 125 129 129 123 139 160 217 193 170 177 183 120 122 68 61 81 145 123 129 128 134 143 144 156 150 149 151 145 133 127 127 125 139 133 130 129 125 123 122 118 118 115 111 104 95 91 91 93 94 97 103 111 105 104 104 100 94 92 87 81 75 74 79 80 86 87 88 88 84 82 85 84 82 81 80 78 79 80 80 80 82
277 276 154 209 177 214 231 247 263 237 79 36 32 95 138 135 144 156 153 175 161 189 185 213 217 268 63 195 173 99 93 43 81 112 113 140 142 145 156 155 156 149 150 142 130 121 119 125 131 132 133 134 131 127 126 124 120 121 115 106 102 99 106 99 97 102 106 102 102 101 103 100 99 95 94 91 91 85 91 102 97 93 89 88 84 80 81 83 84 83 83 84 83 83 82 82 84
233 253 59 261 216 211 247 221 171 61 104 130 130 43 2 149 162 161 165 162 134 199 163 179 192 232 118 147 69 127 106 113 128 113 129 137 146 149 164 159 153 151 151 145 129 129 133 116 130 136 136 137 135 134 132 129 127 124 116 112 105 100 95 97 100 101 100 99 98 100 101 103 101 97 93 89 81 88 87 84 88 89 91 90 88 85 85 86 87 84 83 86 86 85 85 87 87
227 244 177 230 223 206 222 192 231 128 105 107 104 156 162 154 171 178 162 158 161 156 150 145 194 273 131 139 126 162 131 135 131 133 137 144 146 153 161 168 150 155 156 148 142 142 130 124 127 136 139 138 139 138 135 132 132 127 124 114 111 104 93 108 109 107 103 102 101 105 106 106 103 101 98 91 85 86 84 88 84 82 80 78 79 82 84 84 84 86 86 88 92 88 88 88 89
223 186 318 240 208 217 203 186 187 140 149 144 143 134 163 172 170 188 175 141 142 155 131 158 185 212 203 97 63 71 119 135 150 144 148 149 148 155 161 168 152 159 155 154 145 143 137 145 129 129 139 142 139 136 134 137 136 132 125 121 112 113 100 87 106 112 111 109 108 107 110 103 104 106 100 90 89 88 94 97 95 88 86 87 87 86 87 86 88 87 89 89 90 90 88 91 89
221 202 182 226 217 221 199 177 162 118 124 161 151 152 165 170 183 184 162 158 172 153 166 189 110 173 210 153 117 135 137 144 152 143 151 147 154 160 156 165 154 164 154 158 154 150 150 144 153 136 135 139 137 130 131 138 133 130 124 121 120 118 114 96 93 114 117 115 119 119 115 113 106 104 101 95 82 70 92 83 96 99 94 90 86 86 85 85 84 86 89 96 96 94 95 93 85
269 193 198 229 224 224 55 159 144 120 160 191 148 155 158 169 189 190 182 169 172 174 169 185 42 236 202 141 100 130 151 152 148 145 152 154 159 162 161 160 169 168 151 169 166 156 155 156 157 162 147 144 135 132 135 128 128 124 126 125 124 120 119 111 99 91 111 123 86 77 73 64 61 78 70 83 82 61 40 39 84 92 85 87 89 87 87 87 87 90 92 98 100 97 99 93 83
252 237 235 219 26 231 189 143 129 187 191 126 113 136 169 177 197 211 174 185 174 186 60 120 194 209 158 113 151 153 155 153 143 149 152 163 157 159 169 161 171 175 151 178 172 167 166 168 161 159 153 167 160 141 134 133 129 127 123 120 112 114 117 108 91 66 72 79 77 74 79 68 62 58 59 69 82 60 45 35 80 92 98 94 91 92 91 92 93 95 98 100 102 101 98 95 87
259 307 262 279 176 204 137 208 183 203 136 135 132 151 166 172 259 178 194 203 133 68 126 35 16 245 106 221 151 168 149 151 144 152 155 165 152 163 163 170 175 179 166 185 175 176 180 173 171 159 165 176 169 167 163 144 137 128 125 122 114 110 104 99 89 86 83 84 83 83 84 80 73 71 72 83 89 74 69 70 71 94 96 96 93 93 96 98 99 97 102 103 102 102 98 94 88
283 264 237 213 200 215 162 228 167 223 131 139 145 151 169 148 212 201 103 4 81 77 163 168 205 334 5 58 55 117 137 143 144 150 155 155 159 162 168 179 176 179 179 194 184 180 187 184 176 169 174 176 176 171 166 158 139 133 129 121 112 106 106 102 101 93 89 91 94 102 106 110 97 88 92 87 79 70 46 46 56 85 93 99 97 99 99 100 101 104 102 106 103 101 100 86 79
278 282 217 217 208 214 144 203 160 217 112 115 142 163 179 171 171 345 3 291 218 161 195 111 164 166 33 77 93 118 132 138 147 152 156 158 172 170 176 178 182 182 186 194 198 182 191 188 187 176 183 176 176 175 161 161 139 131 120 104 101 106 109 108 107 108 109 111 119 118 143 162 143 124 143 121 125 71 56 58 63 69 80 86 96 96 95 97 102 105 105 105 100 93 85 65 55
236 223 221 207 209 203 152 198 180 72 142 141 164 178 188 165 166 161 175 192 242 131 207 130 94 131 85 111 103 125 137 148 156 160 166 166 178 175 181 184 183 186 187 190 197 188 193 193 190 186 183 183 179 172 166 156 149 168 153 146 140 124 119 128 143 147 148 137 129 160 177 157 154 164 118 142 132 133 82 60 64 75 77 75 82 94 90 88 99 100 101 104 109 118 138 115 92
208 216 229 222 205 86 126 163 80 262 146 156 166 182 201 181 164 161 200 190 194 195 208 193 190 158 119 122 135 148 148 159 164 172 171 175 179 182 183 182 187 186 190 191 192 194 194 193 195 192 186 187 182 182 169 160 164 177 165 160 145 164 153 171 169 155 175 155 176 188 178 153 154 143 118 73 88 62 72 67 66 68 74 75 67 64 68 69 74 85 100 117 133 186 205 140 139
231 262 203 234 115 86 79 103 98 32 102 150 161 177 211 123 172 141 213 187 190 211 194 195 206 178 168 140 153 152 164 166 174 178 180 183 184 186 184 183 188 192 192 191 190 194 193 196 195 194 187 184 189 188 182 173 176 178 173 160 155 167 172 196 174 183 180 170 185 204 183 121 153 98 96 110 114 135 95 88 92 90 94 96 107 96 82 68 68 58 86 181 203 218 197 154 154
139 237 216 200 133 141 122 104 97 67 344 158 165 153 188 161 162 173 197 206 204 218 211 196 201 196 174 154 158 162 173 173 181 188 188 189 190 192 191 184 187 188 189 189 191 194 196 197 192 195 190 191 191 188 190 193 185 177 179 171 167 170 178 192 181 197 185 185 188 213 137 137 180 130 154 154 178 158 153 154 158 170 157 154 195 139 158 116 215 150 167 220 211 220 199 195 169
253 222 37 6 137 138 110 100 73 70 344 162 144 161 188 132 154 199 202 215 202 205 206 197 201 199 166 155 158 164 172 177 183 191 194 193 192 194 195 187 184 186 184 190 192 191 198 199 193 193 194 195 194 194 192 185 189 195 184 184 181 179 182 189 191 188 184 193 192 205 166 174 184 150 162 173 189 156 165 178 180 187 159 170 212 190 179 172 203 161 186 212 206 205 211 208 214
224 167 12 13 20 80 105 114 73 40 171 167 172 175 126 174 185 199 216 225 65 47 51 46 53 23 150 149 152 166 175 182 187 193 196 197 197 199 199 195 187 186 184 194 189 193 191 200 194 192 192 195 196 199 195 182 193 200 193 188 188 188 183 193 198 189 195 187 202 188 202 181 189 170 171 178 181 171 181 179 186 183 166 182 206 222 159 197 218 195 202 212 220 222 233 239 260
271 198 140 86 12 84 69 84 86 47 194 181 139 108 182 185 202 162 225 232 83 73 61 66 65 98 128 146 165 171 181 185 192 196 198 199 198 199 199 200 195 190 191 193 191 190 192 196 194 192 195 194 196 199 199 196 196 201 197 173 193 192 191 195 201 199 184 194 206 193 196 197 192 185 178 180 184 186 185 183 186 180 188 192 194 207 177 202 216 216 214 201 208 206 207 214 216
230 211 150 98 64 81 87 97 125 158 33 21 129 183 199 198 226 130 225 230 175 117 109 101 113 157 170 165 174 180 184 192 197 198 201 206 203 201 203 208 204 192 196 194 191 191 190 196 198 196 196 196 194 196 204 203 198 201 197 183 192 177 197 202 204 195 192 192 202 218 189 212 201 200 188 184 187 189 178 188 186 193 194 189 182 197 190 201 207 206 197 203 208 215 206 216 227
227 73 120 125 94 92 98 118 132 163 144 196 181 198 112 53 30 249 235 212 196 144 153 132 132 154 187 185 180 183 188 192 195 195 200 201 202 201 201 205 208 207 199 196 193 195 188 194 199 200 200 196 197 196 203 203 203 203 195 194 193 165 199 210 202 196 201 201 202 206 201 216 210 205 195 198 187 186 180 183 197 199 196 191 192 204 196 203 204 203 207 204 206 214 221 216 220
84 126 123 125 109 114 137 188 137 164 181 189 204 175 154 89 203 236 212 151 122 171 200 183 177 179 184 194 190 190 192 193 194 194 195 197 199 203 202 203 208 210 202 202 196 196 190 185 198 202 203 200 196 201 201 205 203 206 200 193 196 193 202 207 195 188 208 209 208 203 205 214 217 212 209 203 192 184 186 185 200 193 203 196 200 207 197 209 214 213 205 209 206 214 220 210 220
157 123 110 104 120 107 122 115 136 178 153 194 273 161 110 144 196 253 126 119 175 196 200 199 204 213 195 196 194 197 201 199 193 192 196 194 197 199 202 203 204 207 207 205 201 194 195 193 194 201 202 201 205 203 201 208 206 206 205 199 197 199 200 212 196 194 206 214 212 204 210 209 218 218 217 211 211 187 191 193 198 197 205 197 200 204 194 209 217 225 210 234 233 223 223 214 220
154 159 159 138 152 155 185 163 157 239 112 189 274 194 215 185 222 220 126 136 178 203 207 201 210 214 215 203 194 193 204 197 192 197 202 201 198 197 203 201 199 201 209 205 200 195 197 195 191 196 201 200 205 206 204 208 211 209 206 209 203 193 195 204 207 200 198 199 207 210 211 211 209 219 214 216 214 194 196 190 195 196 208 192 200 191 196 204 215 207 203 211 224 233 232 225 219
161 212 203 159 183 209 168 113 162 229 101 191 217 235 229 206 214 154 140 142 149 186 206 208 210 210 211 203 198 198 198 197 199 203 203 202 200 202 205 199 198 199 200 201 198 199 196 192 191 190 196 203 202 208 208 206 212 213 206 209 205 201 197 201 206 210 210 176 191 207 210 214 215 216 219 213 215 206 195 191 194 194 200 183 191 175 194 205 217 217 216 204 222 228 226 227 220
191 162 228 204 181 202 143 183 150 207 117 176 222 254 268 156 179 131 134 162 169 190 195 201 207 209 206 205 205 206 202 203 206 206 207 204 202 202 204 199 195 197 197 197 196 196 194 192 188 195 184 200 196 206 212 213 211 214 214 214 207 199 199 203 203 208 203 195 174 202 203 215 220 221 221 223 217 215 195 195 195 193 186 180 191 196 203 208 216 219 213 219 218 221 234 230 229
189 165 210 216 217 126 147 140 181 213 152 206 209 254 256 149 131 121 150 174 197 209 209 204 203 204 205 204 209 212 213 206 214 217 212 209 205 203 201 201 196 196 197 195 193 193 195 193 188 195 188 200 197 205 209 213 216 215 215 215 213 189 195 201 211 209 197 193 194 199 202 207 218 220 223 225 219 208 198 199 197 190 173 182 203 201 207 211 210 215 216 217 222 222 228 228 223
205 212 186 199 212 161 157 177 158 315 149 185 218 254 256 178 118 138 177 195 196 210 212 208 208 212 211 213 212 216 217 213 210 216 215 210 209 207 201 200 197 195 196 194 190 190 196 193 188 194 191 196 201 201 208 212 216 216 216 214 217 204 199 202 202 200 192 181 174 185 190 198 207 221 220 217 213 204 207 205 204 192 167 185 201 204 206 212 209 209 214 210 221 224 219 226 223
197 210 238 183 200 184 206 101 210 159 225 197 218 245 250 31 131 150 169 197 193 214 220 227 224 224 222 221 222 219 220 217 215 211 211 208 208 206 204 198 199 196 197 198 195 191 194 192 191 194 194 193 198 200 200 204 212 217 220 220 213 213 203 195 194 191 196 191 185 191 187 189 195 201 205 207 212 209 204 202 205 188 175 187 198 205 211 214 216 210 215 210 213 221 225 220 221
187 186 214 174 253 227 223 184 150 186 209 242 209 230 247 256 224 162 168 181 200 206 214 217 219 220 223 223 225 227 229 226 225 217 209 204 205 204 204 199 199 198 197 198 197 196 195 194 190 190 195 193 194 197 198 204 209 213 218 219 219 220 214 208 200 200 198 188 194 196 193 197 202 205 204 203 209 207 204 199 197 185 185 193 194 199 210 215 219 217 220 217 215 223 232 227 227
196 192 205 193 190 199 226 97 119 209 195 217 227 229 241 243 251 245 178 176 200 221 218 225 228 227 228 226 227 231 233 236 232 226 216 204 199 197 196 195 195 196 198 197 198 198 198 198 196 192 194 193 193 195 196 201 204 211 212 215 217 211 219 217 210 207 202 206 203 202 208 208 214 206 205 204 205 207 209 207 206 197 195 195 191 194 208 212 214 217 221 227 223 224 232 242 235
219 201 209 211 199 196 95 91 82 226 257 229 232 241 254 259 254 250 246 197 204 227 232 231 229 230 229 229 231 231 232 236 224 215 196 188 189 193 192 190 191 193 198 198 197 199 199 197 194 197 192 193 193 192 193 194 203 206 213 214 215 212 214 211 214 212 202 206 210 199 201 208 214 209 207 199 202 205 210 212 208 202 194 199 198 205 205 209 209 213 217 218 226 222 219 219 228
224 203 209 206 205 207 98 118 125 145 223 240 221 249 255 259 259 256 249 246 238 230 232 235 237 235 232 229 231 231 234 228 161 168 184 189 197 190 181 186 188 193 199 199 199 198 198 198 199 197 190 194 197 196 195 197 199 203 203 208 212 215 214 209 215 213 213 205 206 201 202 213 220 217 216 201 195 199 205 212 209 199 191 199 207 210 209 208 208 208 206 218 220 225 230 200 204
206 229 204 234 206 106 130 106 131 136 191 254 204 251 259 256 256 252 247 243 244 241 238 238 237 237 237 233 231 231 222 219 199 211 197 195 191 191 186 189 196 203 199 200 201 198 198 199 202 198 196 195 199 199 198 200 199 200 200 200 203 214 220 220 218 214 203 206 203 213 208 205 211 206 192 188 191 201 207 209 206 199 189 185 190 211 218 212 204 198 194 207 208 220 244 219 202
213 207 206 211 116 182 198 151 148 175 230 328 359 298 276 268 259 255 246 238 241 240 238 239 233 237 234 232 230 224 219 216 217 201 199 199 188 186 187 188 193 196 204 202 198 200 198 199 199 197 198 198 198 198 199 201 198 198 202 206 204 212 217 211 218 220 215 199 209 206 198 179 185 198 187 189 206 212 211 208 206 196 193 191 198 208 209 203 193 193 195 206 210 230 217 227 196
213 255 226 204 142 190 356 131 162 138 234 314 286 282 270 252 248 244 233 226 236 227 224 240 237 240 246 284 306 251 231 221 218 209 206 204 197 193 192 191 185 190 196 200 196 196 197 198 196 195 196 197 197 194 194 197 190 194 201 210 224 222 68 212 204 213 220 218 200 195 205 198 205 208 213 209 205 211 204 203 206 208 206 202 204 211 210 207 201 189 191 203 209 220 230 209 168
192 222 263 322 174 140 109 123 156 198 217 181 230 285 270 238 225 229 208 148 229 232 233 239 235 225 210 227 238 239 238 238 238 228 218 213 215 202 192 187 190 195 199 199 197 195 194 193 193 193 195 196 197 195 190 191 192 190 188 192 199 211 220 213 213 210 207 216 224 214 190 198 203 206 207 214 207 201 201 206 207 215 213 208 203 210 214 197 194 211 205 210 220 224 238 230 210
211 179 183 167 316 126 136 149 204 229 253 132 237 235 275 108 195 206 212 209 230 210 210 241 238 227 202 209 220 222 226 221 220 231 232 231 225 226 218 200 199 205 206 191 191 193 192 191 188 191 191 193 194 192 188 186 192 195 195 198 200 206 213 218 223 227 228 223 226 223 221 205 213 207 201 191 190 200 211 214 210 211 213 207 194 193 209 216 221 220 208 206 216 220 209 240 240
223 37 242 143 176 160 171 185 214 289 92 120 227 245 272 281 263 106 123 232 251 247 236 235 229 221 204 200 203 204 210 217 220 225 224 224 224 220 223 216 211 215 200 186 186 187 190 190 185 188 188 190 186 185 187 187 190 195 198 201 206 212 214 215 205 219 226 234 228 233 234 218 212 216 201 196 196 200 210 216 220 221 217 220 205 196 211 209 205 209 203 206 203 195 213 224 236
0 50 258 146 193 189 178 212 214 359 354 257 182 174 264 257 240 144 180 256 254 246 241 235 227 190 185 178 167 176 201 218 240 243 236 228 222 219 220 216 205 198 186 184 186 185 189 189 188 186 188 185 184 182 185 186 190 192 196 200 207 216 222 223 211 206 212 210 218 216 219 207 200 206 212 213 213 216 213 220 218 219 220 217 204 214 212 206 207 207 195 195 200 204 205 217 224
164 160 92 89 91 94 188 205 220 195 239 249 190 183 244 270 243 204 170 236 245 244 242 230 130 135 133 144 131 144 160 217 244 264 262 252 239 223 207 190 179 192 182 183 180 181 186 188 190 185 188 185 180 180 185 185 188 190 195 202 205 206 214 221 220 215 212 214 214 204 204 208 201 191 197 205 204 208 212 214 217 215 218 215 210 215 204 204 213 222 220 214 212 217 218 222 228
133 170 111 107 102 121 93 0 223 234 240 240 97 190 280 291 247 227 176 216 217 237 225 107 114 119 133 112 124 103 5 300 266 263 259 251 228 212 189 203 193 160 170 184 180 180 181 186 187 186 186 181 178 178 183 187 188 189 198 201 203 207 208 214 212 218 215 217 224 227 228 226 222 219 210 218 234 220 199 199 209 220 226 223 221 219 218 212 206 220 225 224 222 220 222 221 227
160 148 141 121 100 146 187 184 184 231 247 87 326 142 252 227 253 210 82 33 3 1 172 124 112 123 117 119 115 68 7 326 295 273 262 218 181 186 189 187 172 168 169 175 170 172 175 182 183 182 182 180 175 176 180 184 183 188 199 203 202 208 210 210 215 217 216 220 226 227 235 251 248 248 249 233 223 206 215 215 212 220 225 225 222 217 213 202 209 213 226 225 226 219 216 220 220
222 161 162 173 166 166 201 185 205 215 245 111 70 296 251 236 244 285 271 286 245 203 219 157 102 100 110 114 79 35 1 323 299 285 264 218 194 168 177 160 156 162 168 166 165 165 170 176 179 177 178 175 169 173 174 177 180 184 194 203 206 209 213 214 214 219 221 226 229 236 234 234 243 250 246 251 254 239 217 212 203 205 223 223 226 219 225 222 224 228 227 228 225 221 216 220 225
196 185 176 187 188 180 217 202 224 255 73 266 94 143 272 286 278 240 252 259 42 59 170 290 264 267 291 314 338 330 321 316 305 272 250 224 178 165 159 158 159 152 152 156 158 160 163 168 173 175 166 164 157 162 169 174 182 186 192 199 205 205 210 214 214 215 216 217 217 220 226 232 238 238 240 242 246 252 254 250 249 245 237 234 225 226 216 214 220 220 225 230 228 225 222 224 231
203 17 197 212 205 186 196 199 196 213 165 101 237 205 237 222 97 6 349 343 135 188 221 210 250 268 272 288 283 270 269 263 180 239 199 155 150 148 146 143 136 137 145 145 150 157 151 158 164 165 153 156 152 157 166 179 184 189 190 197 201 201 204 205 210 209 213 216 217 220 222 227 232 238 238 238 235 242 247 248 247 239 229 236 235 228 230 233 231 236 236 238 241 237 237 233 236
112 278 21 274 229 2 238 38 354 102 174 161 160 228 271 241 358 266 227 230 199 193 183 190 228 219 210 250 246 220 194 119 142 202 139 123 111 120 122 126 131 129 141 140 151 149 152 154 159 158 154 149 155 162 172 180 182 186 187 193 198 195 179 211 209 160 215 218 219 219 220 220 224 227 230 231 213 208 237 252 254 254 250 247 233 223 222 222 223 231 239 239 242 226 231 229 234
185 144 211 172 17 99 104 124 104 326 325 260 154 251 253 259 262 257 260 174 181 146 172 175 208 190 184 228 219 165 111 106 148 136 107 117 124 116 95 107 123 128 137 151 151 153 155 149 155 151 142 148 162 169 169 175 176 180 190 191 192 187 180 193 201 205 210 215 220 221 223 224 229 231 238 244 245 218 210 235 250 256 258 255 251 242 230 218 216 223 237 243 244 233 231 232 232
109 214 190 132 211 7 159 248 139 227 250 267 157 230 262 277 301 102 242 256 185 143 153 243 212 164 201 191 185 147 126 121 54 288 86 81 85 89 98 96 102 131 141 140 136 137 135 140 147 138 140 151 161 165 167 170 173 177 181 189 192 193 195 202 208 211 212 214 218 224 231 235 232 237 240 242 242 251 253 238 244 251 253 254 254 253 248 227 207 224 237 244 247 242 236 238 234
311 211 117 170 178 216 181 235 234 221 227 249 219 217 250 239 242 171 139 110 197 142 127 186 205 201 204 181 160 130 124 117 104 82 92 101 111 106 100 98 89 75 76 83 101 110 105 107 129 137 141 149 154 160 164 167 172 172 179 185 188 191 199 202 208 215 216 221 223 225 227 234 238 233 234 228 225 239 241 247 247 249 253 255 260 258 255 260 255 245 243 259 255 244 242 243 239
48 251 207 31 352 249 172 198 289 254 250 242 247 153 262 196 221 232 249 257 234 145 121 117 128 144 164 149 129 127 122 100 86 79 73 79 71 80 82 83 84 79 80 73 71 82 98 98 112 100 106 124 139 147 155 159 164 170 170 174 184 192 197 201 202 206 212 217 220 225 232 232 235 238 245 245 245 240 239 238 240 243 247 253 261 269 273 267 256 250 260 263 261 251 249 245 247
171 182 180 201 200 352 336 231 216 220 246 242 271 263 244 213 188 215 216 50 68 54 96 122 121 130 146 97 103 108 106 102 75 73 72 66 74 83 85 76 67 74 69 62 62 68 72 77 90 96 117 124 126 133 142 137 150 151 152 153 150 158 163 156 160 171 189 207 220 231 241 268 295 258 259 249 243 242 246 246 250 252 257 264 271 276 276 273 267 265 259 261 266 262 257 256 252
190 183 189 187 162 164 181 219 89 152 215 235 230 246 256 120 306 181 178 107 129 101 93 129 140 101 92 92 88 86 96 102 83 66 86 94 81 87 96 95 92 88 80 72 68 67 67 70 62 69 71 87 108 115 124 119 117 127 137 134 129 124 133 127 146 148 202 223 266 302 338 332 281 265 250 252 255 262 260 262 264 275 277 278 278 275 275 278 277 275 271 267 267 265 262 256 245